Norris Lake Weather Center

Moon Phase Calendar



Norris Lake Water Level
Online Cameras

 


      

Current Conditions in Maynardville
10/1/2022 6:54:16 AM

54°F
Feels Like 53
Clouds
Humidity
94%
Pressure
29.88"
Wind
6 mph (NNW)
Dew Point
52°F
UV Index
0/10 (Low)
Visibility
6 mi

Hourly Forecast

Date & Time Sat, Oct 1
6:00 AM
Sat, Oct 1
7:00 AM
Sat, Oct 1
8:00 AM
Sat, Oct 1
9:00 AM
Sat, Oct 1
10:00 AM
Sat, Oct 1
11:00 AM
Sat, Oct 1
12:00 PM
Sat, Oct 1
1:00 PM
Sat, Oct 1
2:00 PM
Sat, Oct 1
3:00 PM
Sat, Oct 1
4:00 PM
Sat, Oct 1
5:00 PM
Sat, Oct 1
6:00 PM
Sat, Oct 1
7:00 PM
Sat, Oct 1
8:00 PM
Sat, Oct 1
9:00 PM
Sat, Oct 1
10:00 PM
Sat, Oct 1
11:00 PM
Sun, Oct 2
12:00 AM
Sun, Oct 2
1:00 AM
Sun, Oct 2
2:00 AM
Sun, Oct 2
3:00 AM
Sun, Oct 2
4:00 AM
Sun, Oct 2
5:00 AM
Sun, Oct 2
6:00 AM
Sun, Oct 2
7:00 AM
Sun, Oct 2
8:00 AM
Sun, Oct 2
9:00 AM
Sun, Oct 2
10:00 AM
Sun, Oct 2
11:00 AM
Sun, Oct 2
12:00 PM
Sun, Oct 2
1:00 PM
Sun, Oct 2
2:00 PM
Sun, Oct 2
3:00 PM
Sun, Oct 2
4:00 PM
Sun, Oct 2
5:00 PM
Sun, Oct 2
6:00 PM
Sun, Oct 2
7:00 PM
Sun, Oct 2
8:00 PM
Sun, Oct 2
9:00 PM
Sun, Oct 2
10:00 PM
Sun, Oct 2
11:00 PM
Mon, Oct 3
12:00 AM
Mon, Oct 3
1:00 AM
Mon, Oct 3
2:00 AM
Mon, Oct 3
3:00 AM
Mon, Oct 3
4:00 AM
Mon, Oct 3
5:00 AM
Condition
Rain

Clouds

Rain

Clouds

Clouds

Clouds

Clouds

Clouds

Clouds

Clouds

Clouds

Clouds

Clouds

Clouds

Clouds

Clouds

Clouds

Clouds

Clouds

Clouds

Clouds

Clouds

Clouds

Rain

Rain

Clouds

Clouds

Clouds

Clouds

Clouds

Clouds

Clouds

Clouds

Clouds

Clouds

Clouds

Clouds

Clouds

Clouds

Clouds

Clouds

Clouds

Clouds

Clouds

Clouds

Clear

Clear

Clouds
Temperature 53°F54°F53°F52°F52°F52°F52°F52°F52°F52°F52°F52°F52°F52°F52°F52°F51°F52°F52°F52°F52°F52°F52°F51°F50°F50°F51°F52°F53°F53°F54°F55°F56°F56°F56°F57°F57°F56°F55°F54°F54°F53°F50°F50°F49°F48°F48°F48°F
Feels Like 52°F53°F52°F52°F51°F51°F51°F50°F51°F51°F51°F51°F51°F51°F51°F51°F50°F51°F51°F50°F51°F50°F50°F50°F49°F49°F50°F51°F52°F52°F53°F54°F55°F55°F56°F56°F56°F55°F54°F53°F53°F52°F50°F50°F49°F47°F47°F47°F
Cloudiness 100%100%100%100%100%100%100%100%100%100%100%100%100%100%100%100%100%100%98%98%99%100%100%100%100%99%99%94%97%98%99%99%99%100%100%100%100%100%100%99%99%91%75%69%63%3%5%12%
Visibility 6 mi6 mi6 mi6 mi6 mi6 mi6 mi6 mi6 mi6 mi6 mi6 mi6 mi6 mi6 mi6 mi6 mi6 mi6 mi6 mi6 mi6 mi6 mi6 mi6 mi6 mi6 mi6 mi6 mi6 mi6 mi6 mi6 mi6 mi6 mi6 mi6 mi6 mi6 mi6 mi6 mi6 mi6 mi6 mi6 mi6 mi6 mi6 mi
Precipitation 64%64%64%9%7%5%2%2%1%2%3%3%2%2%0%0%0%0%0%0%0%0%13%30%28%27%23%0%0%0%0%0%0%0%0%0%0%0%0%0%0%0%0%0%0%0%0%0%
Humidity 93%94%93%92%91%88%86%86%85%84%83%84%86%87%87%88%88%85%85%84%82%81%81%85%91%93%92%90%88%89%88%86%85%83%82%81%81%83%86%87%88%91%96%96%97%98%98%98%
Dew Point 51°F52°F51°F50°F50°F48°F47°F47°F47°F47°F47°F47°F47°F48°F48°F48°F48°F47°F47°F46°F46°F46°F46°F46°F47°F48°F48°F49°F49°F50°F50°F50°F51°F51°F51°F51°F50°F50°F50°F50°F50°F50°F49°F48°F48°F47°F47°F47°F
Pressure 29.88"29.88"29.88"29.88"29.91"29.94"29.97"29.97"29.97"29.97"29.97"30"30"30"30.03"30.03"30.03"30.03"30.03"30.03"30.03"30.03"30.03"30.03"30.06"30.06"30.09"30.09"30.12"30.12"30.12"30.15"30.12"30.12"30.12"30.12"30.15"30.15"30.15"30.18"30.18"30.18"30.18"30.18"30.18"30.18"30.18"30.18"
Wind Speed 4.2 mph6 mph8 mph8 mph7.9 mph7.7 mph6.9 mph6.2 mph6.1 mph6.3 mph6 mph5.2 mph4.1 mph2.7 mph2.3 mph3.4 mph3 mph2.9 mph3.8 mph4.5 mph4.2 mph4 mph4 mph3.7 mph3.6 mph3.5 mph2.8 mph3 mph4.2 mph4.3 mph4.5 mph5.1 mph5.3 mph5.7 mph6.1 mph6.6 mph5.4 mph4 mph2.6 mph2.2 mph2.2 mph2.2 mph2.8 mph2.7 mph2.8 mph3.4 mph3.7 mph3.5 mph
Wind
Direction
323°
NW
332°
NNW
345°
NNW
350°
N
352°
N
348°
NNW
336°
NNW
332°
NNW
334°
NNW
334°
NNW
335°
NNW
328°
NNW
322°
NW
327°
NNW
333°
NNW
335°
NNW
335°
NNW
339°
NNW
352°
N
347°
NNW
343°
NNW
342°
NNW
346°
NNW
349°
N
331°
NNW
342°
NNW
337°
NNW
334°
NNW
338°
NNW
350°
N
352°
N
359°
N
355°
N

N

N
15°
NNE
26°
NNE
31°
NNE
34°
NE
27°
NNE
31°
NNE
19°
NNE

N
359°
N

N

N

N

N

Daily Forecast

Date High Low Precip. Humidity
Today
Oct 1

Rain
54 °F
50 °F
65%
86%
Sunday
Oct 2

Rain
57 °F
50 °F
30%
86%
Monday
Oct 3

Clouds
70 °F
48 °F
0%
52%
Tuesday
Oct 4

Clear
71 °F
47 °F
0%
33%
Wednesday
Oct 5

Clear
74 °F
45 °F
0%
32%
Thursday
Oct 6

Clouds
78 °F
47 °F
0%
37%
Friday
Oct 7

Clouds
61 °F
41 °F
0%
46%
Saturday
Oct 8

Clear
63 °F
35 °F
0%
28%
Sunday
Oct 9

Clear
71 °F
40 °F
0%
30%
Monday
Oct 10

Clear
64 °F
42 °F
0%
33%
Tuesday
Oct 11

Clear
61 °F
37 °F
0%
29%
Wednesday
Oct 12

Clear
63 °F
37 °F
0%
31%
Thursday
Oct 13

Clear
64 °F
38 °F
0%
32%
Friday
Oct 14

Clear
65 °F
38 °F
0%
30%
Saturday
Oct 15

Clouds
65 °F
41 °F
0%
35%
Sunday
Oct 16

Clouds
66 °F
44 °F
0%
40%

Temperature 8-14 Day Outlook



Precipitation 8-14 Day Outlook




Quick Links
Norris Lake News
Norris Lake Photos
Norris Lake Videos




About Us
Contact Us
Site Map
Search Site
Advertise With Us
   
www.NorrisLakeNews.com
THE NORRIS LAKE WEBSITE

Copyright 2022, Lakes Online
Privacy    |    Legal